Showing default

GEESAT 2-06, 58910

Orbit data source: Space-Track

GEESAT 2-06, 58910 is a payload satellite owned by GeeSpace (CN) in LEO that was launched on Fri, 02 Feb 2024 UTC via a CHANG ZHENG 2C launch vehicle from the Xichang Space Center, China (XSC). Payload-class satellites include a variety of spacecraft equipped with specific instruments for various scientific and technological missions. These include communications satellites like Starlink; space stations such as the ISS; scientific satellites like the Hubble; Earth observation satellites from companies like Planet Labs, Umbra, and HawkEye 360; GPS; miniature CubeSats for education and research; and military/defense satellites.

Loading next visibility...
Identifier
58910, 2024-023F
Orbit
LEO
Country
Flag of CNCN / PRC
Related business
Manufacturer
Taizhou Xingkong
Mission
Operational Commercial Navigation
Bus & Motor
GEESAT1, Unknown motor
Mass
130 kg wet, 130 kg dry
Launch date (UTC)
2024-02-02 (2 years ago)
Launch vehicle
CHANG ZHENG 2C
Launch site
Xichang Space Center, China (XSC)
Object type
Payload
Rocket body
Debris
Shape & HBR
Box + 2 Pan, 1.0 m
Radar Cross Section
0.833 m², Medium (>0.1 m² and < 1m²)

Expand to show TLE details & history
Last TLE update: 19 hours ago

TLE from 19 hours ago
0 GEESAT 2-06
1 58910U 24023F   25249.30211706  .00008406  00000-0  68589-3 0  9993
2 58910  49.9867 214.5716 0006996  13.3115 346.8014 15.00102953 86969
Epoch: 2025-09-06T07:15Z
TLE epoch observation values (Epoch: 2025-09-06T07:15:02.913Z)
Latitude
-0°
Longitude
120.17156°
Altitude
562.395 km
Speed
7.584 km/s
True Right ascension
14h 18m 17s
True Declination
0° 00' 00"
Sunlit
Object was in daylight at epoch
Visualization orbit readout
Latitude
Unknown
Longitude
Unknown
Altitude
Unknown
Speed
Unknown
Apparent Right ascension
Unknown
Apparent Declination
Unknown
Sunlit
N/A
Visualization observer readout
Local Sidereal Time
18:11:25
Azimuth
Unknown
Elevation
Unknown
Doppler factor
Unknown
Orbital elements
Apogee altitude
572.204 km
Perigee altitude
562.486 km
Semi-major axis
6,945.482 km
Eccentricity
0.0007
Inclination
49.9867°
RAAN
214.5716°
Arg. of periapsis
13.3115°
True anomaly
346.78308°
Mean anomaly
346.8014°
Eccentric anomaly
346.79224°
Mean motion
3.74964 °/min
Orbital period
96.01 mins
BSTAR
0.00068589
Loading maneuver chart data...
Computing Atmospheric mass density...
Loading historical data...
Loading historical data...
Loading historical data...
Loading historical data...
Loading historical data...
Loading historical data...
Loading historical data...

Documentation

Showing up to 5 results
|